SCP
2 2 2 2 1 1 1 0 0 0 1 1 0 0 0 0 1 1 1 1 1 1 1 1 0 0 0 0 0 0 0 0 0 0 0 0 0 0 0 0 0 0 0
3 3 3 2 1 1 1 1 0 0 1 1 0 0 0 1 1 1 1 1 1 1 1 1 1 0 0 0 0 0 0 0 0 0 0 0 0 0 0 0 0 0 0
4 4 3 2 1 1 1 1 0 0 0 0 1 1 1 1 1 1 1 1 1 1 1 1 1 1 0 0 0 0 0 0 0 0 0 0 0 0 0 0 0 0 0
4 4 3 3 2 2 1 1 1 0 0 0 1 1 1 1 1 1 1 1 1 1 1 1 1 1 1 1 1 0 0 0 0 0 0 0 0 0 0 0 0 0 0
5 4 4 3 3 2 2 1 1 1 0 0 0 0 0 1 1 1 1 1 1 1 1 1 1 1 1 1 1 0 0 0 0 0 0 0 0 0 0 0 0 0 0
6 5 4 4 4 3 2 1 1 1 1 0 0 0 0 0 1 1 1 1 1 1 1 1 1 1 1 1 1 0 0 1 1 1 1 1 1 1 0 0 0 0 0
6 6 5 5 4 4 3 2 2 1 1 0 0 0 0 0 0 0 1 1 0 0 1 1 1 1 1 0 0 0 1 1 1 1 1 1 1 1 1 0 0 0 0
7 6 5 5 4 4 3 3 2 2 1 1 1 0 0 0 0 0 0 0 0 0 0 1 1 1 0 0 0 0 1 1 1 1 1 1 1 1 1 0 0 0 0
7 6 6 5 5 4 3 3 3 2 1 1 1 1 0 0 0 0 1 1 0 0 0 0 0 1 0 1 1 1 1 1 1 1 1 1 1 0 0 0 0 0 0
5 5 5 5 5 4 3 3 3 3 2 1 1 1 1 1 0 0 0 0 0 0 0 0 0 0 1 1 1 1 1 1 0 1 1 1 0 0 0 0 0 0 0
3 3 3 4 4 4 3 3 4 3 3 2 1 1 1 1 1 0 0 0 0 0 0 0 0 0 0 1 1 1 1 1 0 0 0 0 0 0 0 0 0 0 0
2 2 3 3 4 4 4 4 5 4 3 3 2 2 1 1 1 1 1 1 0 0 1 1 0 0 0 1 1 1 1 1 0 0 0 0 0 0 0 0 0 0 0
3 3 3 4 5 5 5 5 5 5 4 4 3 2 2 1 1 1 1 1 1 1 1 1 1 1 1 1 1 1 1 0 0 0 0 0 0 0 0 0 0 0 0
5 4 4 5 6 6 5 5 5 5 5 4 3 3 2 2 2 2 2 2 1 1 1 1 1 1 1 1 1 1 1 0 0 0 0 0 0 0 0 0 0 0 0
6 6 5 5 5 6 6 5 5 4 4 4 3 3 3 2 2 2 2 2 2 1 1 1 1 1 1 1 1 1 1 1 0 0 0 0 0 0 0 0 0 0 0
7 7 5 5 5 5 5 5 4 3 3 3 3 3 3 3 3 3 3 3 3 3 1 1 1 2 2 1 1 1 1 1 0 0 0 0 0 0 0 0 0 0 0
8 7 6 5 4 4 4 4 4 3 2 2 2 3 3 3 3 3 4 4 5 4 2 1 2 2 3 2 2 2 1 1 1 0 0 0 0 0 0 0 0 0 0
8 7 6 5 4 4 4 4 3 3 2 2 2 3 3 3 3 4 4 4 4 3 3 2 2 2 3 3 2 2 1 1 0 0 0 0 0 0 0 0 0 0 0
7 7 6 5 4 4 4 4 4 3 3 3 3 3 3 3 3 3 3 3 3 3 3 3 2 2 2 2 2 1 1 1 0 0 0 0 0 0 0 0 0 0 0
7 7 6 5 4 4 4 4 4 4 4 3 3 3 3 4 3 3 3 3 2 2 2 2 2 2 1 2 2 1 1 1 1 0 0 0 0 0 0 0 0 0 0
7 7 6 5 4 3 3 3 3 3 4 4 4 4 3 3 3 3 2 2 2 2 2 1 1 1 1 1 1 1 1 1 1 1 1 1 1 1 0 0 0 0 0
7 6 6 5 4 3 2 2 2 3 3 3 4 4 3 3 3 2 1 1 1 1 1 1 1 1 2 2 2 1 1 1 1 1 1 1 1 1 1 1 0 0 0
5 5 4 4 3 3 2 1 1 2 3 3 3 4 3 3 2 2 1 1 1 1 1 1 1 1 2 2 2 2 2 2 1 2 1 1 1 1 1 1 0 0 0
4 4 3 3 3 2 2 1 1 1 2 3 3 3 3 2 2 2 1 1 1 1 0 0 0 1 1 2 2 2 2 2 1 1 1 1 1 1 1 1 0 0 0
4 4 3 3 3 2 2 1 1 1 2 2 3 3 2 2 1 1 1 1 1 1 1 0 0 0 1 1 1 1 1 1 1 1 1 1 1 1 1 1 1 0 0
5 4 3 3 3 2 1 1 0 1 1 2 3 2 2 1 1 1 1 1 1 1 1 1 0 0 0 0 0 0 1 1 1 1 1 1 1 1 1 1 1 1 0
Wind_Speed
3 4 3 3 4 3 3 2 1 2 2 1 1 1 1 3 6 7 6 12 11 10 10 9 8 8 8 8 7 7 7 6 6 6 6 6 6 6 6 6 6 5 5
3 3 3 2 2 3 2 2 2 2 1 1 1 1 1 2 4 7 7 8 11 10 10 9 9 9 9 9 8 7 7 7 6 6 6 6 6 6 6 6 6 6 5
5 3 3 3 2 3 3 2 2 2 3 2 2 1 2 2 3 4 6 5 6 9 10 9 9 9 9 9 9 8 7 7 6 7 7 6 6 6 6 6 6 6 6
6 4 3 3 3 3 3 2 2 2 1 1 1 1 2 2 3 3 4 6 5 6 8 10 9 9 9 9 9 9 8 7 7 7 7 7 7 7 7 7 7 7 7
6 4 3 3 3 3 3 3 3 1 1 1 1 2 1 2 2 4 4 5 5 6 6 9 10 10 10 10 9 9 8 8 7 7 7 7 8 8 9 9 8 8 8
6 4 4 4 3 3 2 2 3 2 1 1 2 1 1 1 2 2 3 3 4 6 7 8 6 7 11 10 10 9 9 9 8 7 7 7 8 8 9 9 9 9 9
6 4 3 4 2 2 3 4 3 2 1 1 1 1 2 3 3 2 2 1 2 4 5 7 6 5 5 10 10 9 9 9 8 8 8 8 8 8 8 9 9 10 10
6 6 4 4 3 3 3 3 2 1 2 2 1 1 1 2 2 4 3 3 3 3 4 7 6 5 5 5 7 10 10 9 9 8 8 8 8 8 8 9 9 10 10
5 3 6 4 4 4 4 4 4 3 1 1 2 1 0 1 2 1 3 3 3 2 2 3 6 6 6 5 6 8 10 8 8 8 8 8 8 8 8 9 9 9 10
6 5 6 5 4 3 5 5 5 3 2 2 2 1 0 1 0 1 1 2 4 4 3 3 4 5 5 4 6 9 10 9 8 7 7 6 7 7 7 8 9 10 10
6 6 5 5 4 3 4 3 3 2 2 2 1 2 2 2 3 2 2 2 2 3 4 3 2 3 5 5 5 8 11 9 8 7 6 5 6 6 7 8 9 9 10
5 6 6 5 5 4 4 3 3 4 1 1 1 1 1 2 2 2 2 3 3 3 4 3 3 3 3 4 7 11 11 10 8 7 6 5 5 6 6 7 8 9 10
5 7 7 5 5 4 4 4 4 3 3 2 2 2 2 2 1 0 0 1 1 2 2 3 3 3 3 4 5 12 11 10 9 8 7 7 6 6 6 6 7 8 8
6 7 7 6 6 6 6 5 4 4 4 3 4 2 2 2 1 1 0 0 1 2 3 4 3 4 3 4 7 10 7 11 10 10 9 8 8 8 7 7 7 7 7
6 9 8 7 7 6 5 5 4 4 4 4 4 4 3 2 2 1 1 1 1 2 2 3 2 4 4 4 9 6 5 11 12 11 11 10 10 9 9 9 9 9 9
6 9 8 8 7 6 6 5 4 4 4 4 3 3 3 3 2 2 2 1 1 1 2 1 2 2 3 3 9 5 5 10 13 13 13 13 12 12 11 11 11 11 11
6 7 7 7 7 7 7 6 6 6 6 5 5 4 4 4 2 2 2 2 2 1 2 2 1 1 2 2 3 3 4 5 7 14 15 15 14 14 13 13 12 12 12
6 7 7 7 7 8 8 7 7 7 7 6 6 5 5 5 4 3 3 2 2 1 1 3 2 1 2 4 4 4 5 6 5 11 17 17 16 15 14 14 14 14 13
6 7 7 7 7 7 7 7 7 6 6 6 6 6 5 5 5 4 4 3 2 2 2 2 3 3 2 3 4 5 6 5 7 7 11 15 15 15 16 16 16 15 15
6 6 6 6 6 5 6 6 6 6 5 5 5 5 5 6 6 5 5 4 4 3 3 3 3 3 3 3 3 3 4 4 5 7 6 8 12 16 17 17 17 17 16
7 6 5 5 5 5 5 6 6 7 5 5 4 4 5 5 5 5 5 3 4 4 3 3 4 4 4 3 3 3 4 4 4 5 4 4 4 6 8 13 16 17 17
4 5 5 4 5 5 6 7 6 5 4 5 4 4 4 5 5 6 6 5 4 5 5 4 4 4 4 4 3 3 3 3 4 2 2 4 4 4 5 6 11 15 17
4 4 4 3 3 2 3 5 5 3 3 4 4 4 5 5 6 5 6 8 8 8 7 5 6 6 5 4 3 4 3 4 4 3 3 5 5 5 5 7 9 9 12
3 3 3 3 2 1 3 4 4 3 2 3 3 3 4 3 3 3 4 5 6 7 7 7 7 6 5 3 3 3 4 4 5 5 4 6 5 6 7 5 7 10 11
4 4 3 3 2 1 2 3 3 3 2 3 2 3 2 2 3 3 3 4 5 4 5 6 6 6 6 6 4 3 4 4 6 5 3 4 5 5 5 5 7 10 12
3 3 2 2 2 2 3 3 3 1 2 2 2 2 1 2 3 2 3 5 6 5 4 4 4 5 6 7 8 6 5 5 5 5 3 3 4 4 5 5 5 4 5
Wind_Direction
140 140 143 164 175 160 176 196 191 133 137 184 246 175 89 97 119 124 137 152 152 157 161 164 166 165 164 164 164 166 168 171 170 170 171 175 176 175 173 174 172 167 167
129 135 143 170 167 159 163 167 160 148 176 179 231 101 78 78 106 129 144 157 164 166 169 172 174 175 174 174 176 179 183 185 184 182 183 187 189 190 191 189 186 183 183
142 158 157 177 168 142 146 159 165 170 183 185 194 154 126 115 112 126 144 157 168 177 179 180 180 181 183 184 186 187 190 194 193 191 193 195 198 200 202 200 198 196 194
153 166 166 173 154 153 166 165 188 180 172 166 168 180 142 138 148 158 162 166 169 173 184 189 185 185 189 191 193 194 195 200 201 203 202 203 207 208 208 210 210 207 204
160 175 163 146 170 168 178 187 146 133 117 124 190 180 188 173 164 187 177 170 167 160 168 185 191 190 194 196 196 197 198 202 207 211 213 214 215 214 214 216 215 214 212
171 181 156 161 184 172 159 102 97 87 90 238 252 163 209 193 186 168 185 177 172 169 170 171 180 193 199 201 202 203 204 206 208 211 217 222 224 220 218 218 218 217 218
172 190 160 160 183 155 140 137 131 154 217 218 230 188 211 202 179 177 187 158 178 167 162 162 177 178 188 204 205 205 208 211 212 215 221 228 229 227 223 219 219 220 221
174 187 153 171 166 139 139 137 136 176 223 187 221 215 203 189 208 192 171 183 186 163 170 175 169 170 183 176 198 203 208 213 216 220 226 229 232 231 229 226 225 225 225
183 183 158 172 155 165 155 166 171 197 232 187 212 251 236 160 183 179 196 176 162 171 191 171 173 176 185 166 172 194 199 204 213 223 228 229 231 231 231 231 230 228 228
181 185 168 165 168 173 152 182 176 191 206 227 188 198 197 116 142 146 235 189 177 180 197 210 176 177 173 157 161 174 187 195 207 220 226 228 230 230 232 236 238 238 236
186 186 173 165 170 180 162 166 142 185 203 238 230 193 187 185 219 185 206 200 195 183 183 190 181 173 169 162 163 172 180 188 198 207 216 225 231 233 236 240 244 245 244
182 186 177 168 177 179 161 154 162 190 223 270 317 302 195 203 217 208 196 202 198 190 179 171 175 188 182 170 172 165 174 182 190 197 206 218 229 235 241 245 250 252 252
181 185 179 172 180 168 166 171 183 200 197 205 252 282 295 277 249 272 161 220 197 178 169 179 189 186 196 147 146 160 174 182 191 198 206 215 224 232 240 247 254 259 261
183 175 171 176 177 177 184 178 189 195 186 198 228 243 299 305 314 286 253 292 257 226 194 197 182 177 180 147 158 173 180 187 195 202 209 216 223 228 234 240 248 253 258
182 170 172 176 182 185 184 174 205 199 169 191 217 215 238 267 272 293 292 264 237 262 247 210 180 181 168 149 160 189 181 194 202 209 216 222 226 230 234 238 243 247 251
181 163 173 179 183 183 184 188 202 193 185 199 216 211 210 246 232 227 246 254 250 259 278 272 210 177 163 180 173 195 205 196 207 214 219 223 227 230 233 237 241 245 248
175 173 178 181 184 186 187 193 211 189 194 203 216 209 207 250 283 276 236 233 240 242 263 282 259 166 150 164 160 222 230 207 212 219 221 223 225 229 232 235 239 242 246
183 183 184 187 194 192 188 192 212 201 195 202 213 215 208 219 222 268 291 269 243 217 240 280 294 266 195 191 195 221 245 244 235 224 220 223 225 228 231 236 239 241 243
187 188 190 194 202 198 190 194 205 210 204 207 209 212 215 222 218 220 233 262 269 255 212 241 267 271 244 220 206 226 244 256 268 262 225 223 226 228 231 235 237 239 241
187 193 196 198 201 203 195 198 203 211 214 216 214 212 214 218 216 220 227 231 251 271 263 245 255 261 254 238 212 222 248 243 251 264 257 231 225 228 233 236 238 238 239
191 191 195 194 194 200 207 204 204 209 212 221 226 221 224 219 214 214 231 224 232 239 251 250 248 252 255 252 242 236 250 258 253 246 256 256 233 230 234 240 243 243 240
189 186 188 190 198 214 213 200 201 215 203 214 227 229 229 217 218 217 228 236 238 244 251 258 261 258 262 264 265 261 259 270 273 266 278 278 273 257 247 241 240 235 235
179 182 179 184 195 230 194 177 195 221 225 221 225 227 243 241 217 218 226 236 246 250 242 250 265 269 275 278 275 274 273 273 268 281 295 279 274 273 268 270 265 251 241
175 175 179 178 177 194 171 175 192 212 238 244 239 231 231 259 271 245 242 240 240 241 237 234 242 256 268 278 278 271 268 273 265 261 250 265 270 269 275 277 279 268 256
164 171 174 175 177 175 154 166 174 194 223 243 262 273 256 244 272 271 261 264 262 255 246 238 232 240 250 262 261 271 269 269 274 270 255 257 271 278 279 278 275 269 261
146 146 135 133 132 117 114 129 169 215 230 245 238 255 292 284 291 281 264 263 263 265 273 271 252 254 254 254 243 233 243 255 267 273 261 267 280 289 285 270 272 279 272